When you browse on this site, cookies collect data to enhance your experience and personalize the content and advertising you see.
Visit our Privacy Policy to learn more. By continuing to use the site, you agree to this use of cookies and data.
  • In United Kingdom
  • List of Countries
  • For 7 days
  • Water Temperature
  • Satellite Maps
  • Weather Map
  • Weather Widgets
  • user-avatar
    Login

    Hourly Weather Mantes-la-Ville

    Today, 24 April, Wednesday

    Time Temperature Precipitation Wind Pressure Humidity
    00:00 +14°C° 0 mm 1 mps 741 mmHg 86%
    01:00 +14°C° 0.2 mm 2 mps 741 mmHg 88%
    02:00 +12°C° 0.2 mm 3 mps 741 mmHg 90%
    03:00 +12°C° 0.2 mm 3 mps 741 mmHg 91%
    04:00 +12°C° 0 mm 4 mps 741 mmHg 90%
    05:00 +13°C° 0 mm 5 mps 741 mmHg 88%
    06:00 +13°C° 0 mm 6 mps 741 mmHg 86%
    07:00 +13°C° 0 mm 6 mps 742 mmHg 84%
    08:00 +13°C° 0 mm 6 mps 742 mmHg 83%
    09:00 +13°C° 0 mm 6 mps 742 mmHg 81%
    10:00 +14°C° 0 mm 6 mps 743 mmHg 76%
    11:00 +14°C° 0 mm 5 mps 743 mmHg 71%
    12:00 +15°C° 0 mm 5 mps 743 mmHg 67%
    13:00 +15°C° 0.3 mm 6 mps 743 mmHg 69%
    14:00 +14°C° 0.3 mm 6 mps 744 mmHg 71%
    15:00 +14°C° 0.3 mm 6 mps 744 mmHg 73%
    16:00 +14°C° 0.2 mm 6 mps 744 mmHg 74%
    17:00 +13°C° 0.2 mm 5 mps 744 mmHg 75%
    18:00 +13°C° 0.2 mm 5 mps 744 mmHg 76%
    19:00 +12°C° 0 mm 4 mps 744 mmHg 77%
    20:00 +11°C° 0 mm 3 mps 744 mmHg 77%
    21:00 +10°C° 0 mm 3 mps 745 mmHg 78%
    22:00 +11°C° 0 mm 3 mps 745 mmHg 76%
    23:00 +11°C° 0 mm 4 mps 745 mmHg 74%

    Tomorrow, 25 April, Thursday

    Time Temperature Precipitation Wind Pressure Humidity
    00:00 +12°C° 0 mm 4 mps 745 mmHg 72%
    01:00 +10°C° 0.9 mm 5 mps 744 mmHg 77%
    02:00 +10°C° 0.9 mm 5 mps 744 mmHg 82%
    03:00 +10°C° 0.9 mm 5 mps 744 mmHg 87%
    04:00 +10°C° 1.7 mm 5 mps 744 mmHg 88%
    05:00 +9°C° 1.7 mm 5 mps 745 mmHg 90%
    06:00 +9°C° 1.7 mm 5 mps 745 mmHg 91%
    07:00 +9°C° 0 mm 5 mps 746 mmHg 88%
    08:00 +10°C° 0 mm 5 mps 746 mmHg 85%
    09:00 +10°C° 0 mm 5 mps 747 mmHg 82%
    10:00 +10°C° 0.4 mm 6 mps 747 mmHg 80%
    11:00 +11°C° 0.4 mm 6 mps 748 mmHg 78%
    12:00 +11°C° 0.4 mm 7 mps 748 mmHg 77%
    13:00 +11°C° 0.2 mm 7 mps 748 mmHg 74%
    14:00 +12°C° 0.2 mm 7 mps 749 mmHg 72%
    15:00 +12°C° 0.2 mm 7 mps 749 mmHg 69%
    16:00 +13°C° 0 mm 6 mps 749 mmHg 70%
    17:00 +11°C° 0 mm 6 mps 750 mmHg 71%
    18:00 +10°C° 0 mm 6 mps 750 mmHg 71%
    19:00 +10°C° 0 mm 5 mps 751 mmHg 74%
    20:00 +9°C° 0 mm 5 mps 751 mmHg 76%
    21:00 +8°C° 0 mm 5 mps 752 mmHg 79%
    22:00 +7°C° 0 mm 5 mps 752 mmHg 81%
    23:00 +7°C° 0 mm 4 mps 752 mmHg 84%

    Day after tomorrow, 26 April, Friday

    Time Temperature Precipitation Wind Pressure Humidity
    00:00 +6°C° 0 mm 4 mps 753 mmHg 86%
    01:00 +6°C° 0 mm 4 mps 753 mmHg 87%
    02:00 +6°C° 0 mm 4 mps 753 mmHg 87%
    03:00 +5°C° 0 mm 4 mps 753 mmHg 88%
    04:00 +6°C° 0 mm 5 mps 754 mmHg 85%
    05:00 +7°C° 0 mm 5 mps 754 mmHg 82%
    06:00 +7°C° 0 mm 6 mps 754 mmHg 79%
    07:00 +9°C° 0 mm 6 mps 754 mmHg 76%
    08:00 +10°C° 0 mm 6 mps 755 mmHg 73%
    09:00 +13°C° 0 mm 6 mps 755 mmHg 71%
    10:00 +13°C° 0.2 mm 6 mps 755 mmHg 69%
    11:00 +14°C° 0.2 mm 6 mps 755 mmHg 68%
    12:00 +15°C° 0.2 mm 6 mps 755 mmHg 66%
    13:00 +15°C° 0.5 mm 6 mps 755 mmHg 68%
    14:00 +14°C° 0.5 mm 6 mps 756 mmHg 70%
    15:00 +14°C° 0.5 mm 7 mps 756 mmHg 71%
    16:00 +13°C° 0.2 mm 6 mps 756 mmHg 74%
    17:00 +13°C° 0.2 mm 5 mps 757 mmHg 77%
    18:00 +12°C° 0.2 mm 3 mps 757 mmHg 80%
    19:00 +11°C° 0.1 mm 3 mps 758 mmHg 82%
    20:00 +10°C° 0.1 mm 3 mps 758 mmHg 85%
    21:00 +8°C° 0.1 mm 4 mps 758 mmHg 88%
    22:00 +8°C° 0 mm 4 mps 758 mmHg 86%
    23:00 +7°C° 0 mm 5 mps 757 mmHg 85%

    27 April, Saturday

    Time Temperature Precipitation Wind Pressure Humidity
    00:00 +7°C° 0 mm 6 mps 757 mmHg 84%
    01:00 +6°C° 0.4 mm 7 mps 756 mmHg 85%
    02:00 +7°C° 0.4 mm 8 mps 755 mmHg 86%
    03:00 +7°C° 0.4 mm 8 mps 755 mmHg 88%
    04:00 +7°C° 0.1 mm 8 mps 754 mmHg 87%
    05:00 +6°C° 0.1 mm 9 mps 754 mmHg 85%
    06:00 +6°C° 0.1 mm 9 mps 754 mmHg 84%
    07:00 +6°C° 0.6 mm 9 mps 754 mmHg 84%
    08:00 +7°C° 0.6 mm 10 mps 754 mmHg 84%
    09:00 +7°C° 0.6 mm 10 mps 754 mmHg 85%
    10:00 +7°C° 0.8 mm 10 mps 755 mmHg 85%
    11:00 +7°C° 0.8 mm 10 mps 755 mmHg 85%
    12:00 +8°C° 0.8 mm 10 mps 756 mmHg 85%
    13:00 +8°C° 0.3 mm 10 mps 756 mmHg 82%
    14:00 +9°C° 0.3 mm 10 mps 757 mmHg 80%
    15:00 +9°C° 0.3 mm 10 mps 757 mmHg 77%
    16:00 +9°C° 0.1 mm 10 mps 758 mmHg 80%
    17:00 +8°C° 0.1 mm 9 mps 759 mmHg 82%
    18:00 +8°C° 0.1 mm 9 mps 760 mmHg 84%
    19:00 +9°C° 0.3 mm 8 mps 761 mmHg 85%
    20:00 +7°C° 0.3 mm 8 mps 761 mmHg 86%
    21:00 +8°C° 0.3 mm 7 mps 762 mmHg 86%
    22:00 +8°C° 0 mm 6 mps 763 mmHg 86%
    23:00 +8°C° 0 mm 6 mps 763 mmHg 86%

    28 April, Sunday

    Time Temperature Precipitation Wind Pressure Humidity
    00:00 +7°C° 0 mm 5 mps 763 mmHg 86%
    01:00 +7°C° 0 mm 4 mps 764 mmHg 87%
    02:00 +6°C° 0 mm 4 mps 764 mmHg 88%
    03:00 +6°C° 0 mm 4 mps 764 mmHg 89%
    04:00 +6°C° 0 mm 4 mps 764 mmHg 88%
    05:00 +6°C° 0 mm 4 mps 764 mmHg 86%
    06:00 +7°C° 0 mm 3 mps 765 mmHg 85%
    07:00 +8°C° 0 mm 4 mps 765 mmHg 80%
    08:00 +10°C° 0 mm 4 mps 765 mmHg 76%
    09:00 +12°C° 0 mm 4 mps 765 mmHg 71%
    10:00 +12°C° 0 mm 4 mps 764 mmHg 68%
    11:00 +13°C° 0 mm 4 mps 764 mmHg 64%
    12:00 +14°C° 0 mm 4 mps 764 mmHg 60%
    13:00 +14°C° 0 mm 4 mps 764 mmHg 59%
    14:00 +14°C° 0 mm 4 mps 763 mmHg 58%
    15:00 +14°C° 0 mm 4 mps 763 mmHg 58%
    16:00 +13°C° 0 mm 4 mps 763 mmHg 62%
    17:00 +13°C° 0 mm 3 mps 763 mmHg 67%
    18:00 +12°C° 0 mm 3 mps 763 mmHg 71%
    19:00 +10°C° 0 mm 2 mps 763 mmHg 75%
    20:00 +8°C° 0 mm 2 mps 763 mmHg 79%
    21:00 +7°C° 0 mm 2 mps 764 mmHg 83%
    22:00 +6°C° 0 mm 2 mps 763 mmHg 84%
    23:00 +7°C° 0 mm 1 mps 763 mmHg 85%

    29 April, Monday

    Time Temperature Precipitation Wind Pressure Humidity
    00:00 +6°C° 0 mm 1 mps 763 mmHg 86%
    01:00 +6°C° 0 mm 1 mps 763 mmHg 87%
    02:00 +6°C° 0 mm 1 mps 763 mmHg 88%
    03:00 +6°C° 0 mm 1 mps 762 mmHg 88%
    04:00 +6°C° 0 mm 1 mps 762 mmHg 87%
    05:00 +7°C° 0 mm 1 mps 762 mmHg 85%
    06:00 +8°C° 0 mm 1 mps 762 mmHg 84%
    07:00 +10°C° 0 mm 1 mps 762 mmHg 78%
    08:00 +12°C° 0 mm 1 mps 762 mmHg 72%
    09:00 +13°C° 0 mm 1 mps 761 mmHg 66%
    10:00 +15°C° 0 mm 1 mps 761 mmHg 60%
    11:00 +16°C° 0 mm 1 mps 760 mmHg 55%
    12:00 +18°C° 0 mm 1 mps 760 mmHg 49%
    13:00 +17°C° 0 mm 2 mps 759 mmHg 48%
    14:00 +17°C° 0 mm 2 mps 759 mmHg 46%
    15:00 +18°C° 0 mm 2 mps 758 mmHg 45%
    16:00 +17°C° 0 mm 2 mps 758 mmHg 51%
    17:00 +16°C° 0 mm 2 mps 758 mmHg 56%
    18:00 +15°C° 0 mm 2 mps 757 mmHg 62%
    19:00 +14°C° 0 mm 2 mps 757 mmHg 65%
    20:00 +12°C° 0 mm 3 mps 758 mmHg 69%
    21:00 +10°C° 0 mm 3 mps 758 mmHg 72%
    22:00 +10°C° 0 mm 3 mps 757 mmHg 75%
    23:00 +10°C° 0 mm 2 mps 757 mmHg 77%
    Show more